GW6149 Weather Reports


time (UTC)temp
C
wind
direction
speed
KPH
gust
KPH
rain 1hr
cm
rain 24hr
cm
rain mn
cm
humidity
%
barometer
mb
20260505070432 12 54 3.2 3.2 0.00 0.00 0.00 79 1009.9
20260505065928 12 41 1.6 3.2 0.00 0.00 0.00 79 1009.9
20260505065425 12 49 3.2 3.2 0.00 0.00 0.00 80 1009.8
20260505064921 12 35 1.6 3.2 0.00 0.00 0.00 80 1009.8
20260505064419 12 34 1.6 3.2 0.00 0.00 0.00 80 1009.5
20260505063917 13 58 0.0 3.2 0.00 0.00 0.00 78 1009.5
20260505063413 13 84 0.0 1.6 0.00 0.00 0.00 77 1009.7
20260505062909 13 38 1.6 3.2 0.00 0.00 0.00 78 1009.7
20260505062407 13 39 1.6 1.6 0.00 0.00 0.00 77 1009.7
20260505061903 13 62 0.0 0.0 0.00 0.00 0.00 76 1009.8
20260505061402 13 81 0.0 0.0 0.00 0.00 0.00 76 1009.8
20260505060859 13 30 0.0 0.0 0.00 0.00 0.00 76 1009.9
20260505060356 13 29 0.0 0.0 0.00 0.00 0.00 76 1010.1
20260505055852 13 26 0.0 0.0 0.00 0.00 0.00 76 1010.0
20260505055348 13 293 0.0 0.0 0.00 0.00 0.00 76 1009.9
20260505054845 13 26 0.0 0.0 0.00 0.00 0.00 75 1010.0
20260505054342 14 13 0.0 1.6 0.00 0.00 0.00 74 1009.9
20260505053841 14 55 0.0 0.0 0.00 0.00 0.00 74 1009.9
20260505053337 13 285 1.6 3.2 0.00 0.00 0.00 76 1009.9
20260505052834 13 39 0.0 0.0 0.00 0.00 0.00 75 1010.2
20260505052331 13 61 0.0 1.6 0.00 0.00 0.00 75 1010.0
20260505051828 13 75 1.6 3.2 0.00 0.00 0.00 75 1010.3
20260505051325 13 62 0.0 0.0 0.00 0.00 0.00 75 1010.1
20260505050823 15 23 0.0 0.0 0.00 0.00 0.00 73 1010.2
20260505050322 15 12 1.6 3.2 0.00 0.00 0.00 71 1010.1
20260505041752 16 85 0.0 4.8 0.00 0.00 0.00 66 1010.1
20260505041249 17 61 0.0 4.8 0.00 0.00 0.00 65 1010.2
20260505040746 17 238 4.8 6.4 0.00 0.00 0.00 64 1010.1
20260505040243 17 259 0.0 3.2 0.00 0.00 0.00 63 1010.1
20260505035740 17 260 6.4 11.3 0.00 0.00 0.00 62 1010.1
20260505035236 17 280 3.2 11.3 0.00 0.00 0.00 62 1010.2
20260505034733 17 266 3.2 9.7 0.00 0.00 0.00 62 1010.0
20260505034230 17 225 4.8 12.9 0.00 0.00 0.00 62 1010.0
20260505033727 17 243 6.4 12.9 0.00 0.00 0.00 62 1010.0
20260505033225 17 245 8.0 12.9 0.00 0.00 0.00 61 1009.9
20260505032722 17 245 9.7 20.9 0.00 0.00 0.00 62 1009.9
20260505032218 17 131 9.7 20.9 0.00 0.00 0.00 62 1009.8
20260505031716 17 98 1.6 4.8 0.00 0.00 0.00 62 1009.8
20260505031212 17 69 1.6 11.3 0.00 0.00 0.00 63 1010.0
20260505030709 17 41 3.2 9.7 0.00 0.00 0.00 63 1009.8
20260505030205 17 263 3.2 14.5 0.00 0.00 0.00 63 1009.9
20260505025700 17 40 4.8 12.9 0.00 0.00 0.00 63 1010.0
20260505025159 17 226 11.3 14.5 0.00 0.00 0.00 63 1010.0
20260505024657 17 171 4.8 14.5 0.00 0.00 0.00 63 1010.0
20260505024153 17 53 1.6 6.4 0.00 0.00 0.00 62 1009.9
20260505023651 17 223 1.6 9.7 0.00 0.00 0.00 62 1009.9
20260505023148 17 320 1.6 6.4 0.00 0.00 0.00 62 1010.0
20260505022646 17 260 4.8 6.4 0.00 0.00 0.00 63 1009.8
20260505022143 17 279 1.6 4.8 0.00 0.00 0.00 64 1010.0
20260505021639 17 165 4.8 6.4 0.00 0.00 0.00 63 1009.8
20260505021136 17 263 1.6 3.2 0.00 0.00 0.00 62 1009.9
20260505020631 17 228 3.2 4.8 0.00 0.00 0.00 62 1010.0
20260505020128 17 22 3.2 6.4 0.00 0.00 0.00 62 1009.8
20260505015625 17 141 0.0 1.6 0.00 0.00 0.00 62 1009.9
20260505015121 17 45 0.0 4.8 0.00 0.00 0.00 61 1009.9
20260505014618 18 349 3.2 4.8 0.00 0.00 0.00 60 1009.8
20260505014115 17 357 1.6 9.7 0.00 0.00 0.00 60 1009.8
20260505013613 17 233 9.7 12.9 0.00 0.00 0.00 62 1010.0
20260505013110 17 234 8.0 12.9 0.00 0.00 0.00 62 1009.7
20260505012608 17 218 6.4 9.7 0.00 0.00 0.00 62 1009.8
20260505012105 17 312 3.2 9.7 0.00 0.00 0.00 62 1009.7
20260505011600 17 227 3.2 4.8 0.00 0.00 0.00 61 1009.5
20260505011058 18 244 1.6 3.2 0.00 0.00 0.00 60 1009.7
20260505010553 18 219 1.6 3.2 0.00 0.00 0.00 59 1009.4
20260505010050 18 174 3.2 6.4 0.00 0.00 0.00 58 1009.2
20260505005546 18 111 3.2 6.4 0.00 0.00 0.00 57 1009.2
20260505005044 18 46 1.6 3.2 0.00 0.00 0.00 57 1009.3
20260505004540 18 304 3.2 9.7 0.00 0.00 0.00 57 1009.1
20260505004037 18 247 4.8 4.8 0.00 0.00 0.00 57 1009.2
20260505003535 19 186 3.2 4.8 0.00 0.00 0.00 55 1009.3
20260505003032 20 96 4.8 4.8 0.00 0.00 0.00 54 1009.5
20260505002532 20 215 6.4 11.3 0.00 0.00 0.00 52 1009.3
20260505002031 20 243 9.7 12.9 0.00 0.00 0.00 51 1009.0
20260505001528 20 227 6.4 12.9 0.00 0.00 0.00 51 1009.0
20260505001025 20 219 9.7 17.7 0.00 0.00 0.00 50 1009.0
20260505000523 21 165 12.9 20.9 0.00 0.00 0.00 49 1009.1
20260505000020 21 116 9.7 24.1 0.00 0.00 0.00 49 1009.2
20260504235517 20 219 9.7 16.1 0.00 0.00 0.00 49 1009.1
20260504235013 20 233 11.3 16.1 0.00 0.00 0.00 49 1009.1
20260504234510 20 239 14.5 17.7 0.00 0.00 0.00 49 1008.7
20260504234007 20 244 14.5 20.9 0.00 0.00 0.00 49 1008.8
20260504233502 21 276 6.4 14.5 0.00 0.00 0.00 49 1008.6
20260504233000 21 244 3.2 16.1 0.00 0.00 0.00 49 1008.7
20260504232457 21 238 12.9 22.5 0.00 0.00 0.00 48 1008.6
20260504231954 21 242 14.5 22.5 0.00 0.00 0.00 48 1008.7
20260504231450 22 237 9.7 16.1 0.00 0.00 0.00 48 1008.6
20260504230947 22 234 17.7 22.5 0.00 0.00 0.00 47 1008.7
20260504230443 22 236 12.9 24.1 0.00 0.00 0.00 46 1008.6
20260504225943 22 247 20.9 29.0 0.00 0.00 0.00 45 1008.4
20260504225439 22 215 14.5 24.1 0.00 0.00 0.00 45 1008.5
20260504224936 22 234 20.9 29.0 0.00 0.00 0.00 45 1008.4
20260504224432 22 243 25.7 27.4 0.00 0.00 0.00 44 1008.6
20260504223930 22 247 22.5 24.1 0.00 0.00 0.00 44 1008.5
20260504223425 22 234 9.7 20.9 0.00 0.00 0.00 47 1008.4
20260504222921 23 316 11.3 24.1 0.00 0.00 0.00 48 1008.2
20260504222419 22 260 3.2 14.5 0.00 0.00 0.00 47 1008.2
20260504221917 22 209 12.9 17.7 0.00 0.00 0.00 47 1008.4
20260504221413 23 238 9.7 12.9 0.00 0.00 0.00 47 1008.6
20260504220910 23 321 8.0 12.9 0.00 0.00 0.00 47 1008.5
20260504220407 22 38 11.3 22.5 0.00 0.00 0.00 46 1008.4
20260504215904 22 235 11.3 37.0 0.00 0.00 0.00 48 1008.3
20260504215401 22 233 16.1 25.7 0.00 0.00 0.00 48 1008.6
20260504214857 22 265 11.3 24.1 0.00 0.00 0.00 49 1008.4
20260504214354 22 39 12.9 29.0 0.00 0.00 0.00 48 1008.4
20260504213851 22 166 11.3 22.5 0.00 0.00 0.00 48 1008.3
20260504213346 22 293 12.9 20.9 0.00 0.00 0.00 49 1008.5
20260504212844 22 276 11.3 16.1 0.00 0.00 0.00 48 1008.5
20260504212340 22 180 8.0 11.3 0.00 0.00 0.00 49 1008.5
20260504211838 22 200 9.7 22.5 0.00 0.00 0.00 48 1008.5
20260504211333 22 275 6.4 17.7 0.00 0.00 0.00 47 1008.5
20260504210831 23 229 16.1 27.4 0.00 0.00 0.00 45 1008.4
20260504210328 22 310 9.7 20.9 0.00 0.00 0.00 46 1008.4
20260504205825 22 209 9.7 17.7 0.00 0.00 0.00 47 1008.6
20260504205323 22 227 11.3 16.1 0.00 0.00 0.00 46 1008.6
20260504204821 23 227 12.9 24.1 0.00 0.00 0.00 45 1008.6
20260504204319 23 255 9.7 17.7 0.00 0.00 0.00 45 1008.5
20260504203818 22 244 20.9 29.0 0.00 0.00 0.00 46 1008.4
20260504203315 22 318 1.6 16.1 0.00 0.00 0.00 47 1008.6
20260504202810 22 225 20.9 27.4 0.00 0.00 0.00 46 1008.6
20260504202308 22 61 6.4 17.7 0.00 0.00 0.00 46 1008.6
20260504201804 23 64 8.0 17.7 0.00 0.00 0.00 45 1008.7
20260504201302 22 213 11.3 27.4 0.00 0.00 0.00 46 1008.8
20260504200759 22 249 9.7 25.7 0.00 0.00 0.00 46 1008.7
20260504200255 22 5 14.5 22.5 0.00 0.00 0.00 46 1008.8
20260504195752 22 219 8.0 20.9 0.00 0.00 0.00 46 1008.9
20260504195247 22 234 14.5 33.8 0.00 0.00 0.00 46 1008.9
20260504194745 22 245 19.3 24.1 0.00 0.00 0.00 46 1008.8
20260504194241 22 257 4.8 12.9 0.00 0.00 0.00 46 1009.0
20260504193737 22 55 9.7 14.5 0.00 0.00 0.00 45 1009.1
20260504193235 22 243 14.5 25.7 0.00 0.00 0.00 46 1009.3
20260504192733 22 232 4.8 20.9 0.00 0.00 0.00 45 1009.5
20260504192231 21 140 14.5 20.9 0.00 0.00 0.00 45 1009.8
20260504191729 22 195 6.4 17.7 0.00 0.00 0.00 45 1009.5
20260504191226 22 237 11.3 20.9 0.00 0.00 0.00 45 1009.7
20260504190721 22 248 12.9 22.5 0.00 0.00 0.00 44 1009.5
20260504190218 22 303 4.8 16.1 0.00 0.00 0.00 47 1009.8
20260504185714 21 261 12.9 20.9 0.00 0.00 0.00 44 1009.5
20260504185211 21 324 9.7 16.1 0.00 0.00 0.00 45 1009.4
20260504184707 22 240 14.5 17.7 0.00 0.00 0.00 42 1009.8
20260504184203 22 185 11.3 24.1 0.00 0.00 0.00 44 1009.8
20260504183659 22 247 20.9 27.4 0.00 0.00 0.00 40 1009.8
20260504183156 22 258 37.0 40.2 0.00 0.00 0.00 41 1009.9
20260504182654 22 243 25.7 27.4 0.00 0.00 0.00 41 1010.4
20260504182151 22 273 16.1 17.7 0.00 0.00 0.00 42 1010.2
20260504181649 22 237 14.5 17.7 0.00 0.00 0.00 42 1010.1
20260504181146 22 255 20.9 27.4 0.00 0.00 0.00 40 1010.2
20260504180645 22 238 17.7 27.4 0.00 0.00 0.00 40 1010.5
20260504180143 22 296 17.7 22.5 0.00 0.00 0.00 39 1010.3
20260504175640 22 239 12.9 20.9 0.00 0.00 0.00 44 1010.5
20260504175137 21 228 11.3 22.5 0.00 0.00 0.00 44 1010.6
20260504174636 21 237 22.5 27.4 0.00 0.00 0.00 42 1010.5
20260504174131 21 218 14.5 20.9 0.00 0.00 0.00 44 1010.8
20260504173629 21 173 6.4 24.1 0.00 0.00 0.00 43 1010.8
20260504173126 21 176 11.3 24.1 0.00 0.00 0.00 44 1010.7
20260504172622 20 176 11.3 22.5 0.00 0.00 0.00 47 1011.1
20260504172119 21 96 4.8 24.1 0.00 0.00 0.00 49 1011.1
20260504171615 21 242 9.7 17.7 0.00 0.00 0.00 47 1011.1
20260504171113 21 113 9.7 17.7 0.00 0.00 0.00 46 1011.2
20260504170609 21 239 14.5 27.4 0.00 0.00 0.00 46 1011.2
20260504170107 21 247 9.7 24.1 0.00 0.00 0.00 46 1011.0
20260504150952 18 243 12.9 17.7 0.00 0.00 0.00 49 1012.7
20260504150449 18 199 11.3 16.1 0.00 0.00 0.00 50 1012.8
20260504140916 16 92 6.4 17.7 0.00 0.00 0.00 52 1013.2
20260504140412 15 249 6.4 12.9 0.00 0.00 0.00 52 1013.3
20260504130337 13 252 6.4 16.1 0.00 0.00 0.00 56 1013.7
20260504120300 11 212 12.9 14.5 0.00 0.00 0.00 58 1013.7
20260504110224 7 100 0.0 0.0 0.00 0.00 0.00 67 1013.9
20260504100148 7 147 1.6 1.6 0.00 0.00 0.00 67 1013.8
20260504090110 6 90 0.0 1.6 0.00 0.00 0.00 69 1014.5
20260504081541 5 145 1.6 3.2 0.00 0.00 0.00 72 1014.5
20260504081036 5 101 0.0 0.0 0.00 0.00 0.00 72 1014.6
20260504080533 5 135 0.0 4.8 0.00 0.00 0.00 73 1014.5